Flag for Moldova Weather past 2 weeks in Chisinau, Moldova

Now
43 °F

Clear.


Feels Like: 37 °F
Forecast: 36 / 49 °F
Wind: 9 mph from Southwest

Location: Chisinau International Airport

Current Time: Apr 1, 2015 at 3:47:42 AM

Latest Report: Apr 1, 2015 at 3:00 AM


Visibility: 10 mi

Pressure: 29.50 "Hg

Humidity: 81%

Dew point: 37 °F

Location of ChisinauLocation

Historic Weather in Chisinau — Graph

°F

Chisinau temperature yesterday

Maximum temperature yesterday: 55 °F (at 4:00 PM)
Minimum temperature yesterday: 43 °F (at 8:00 AM)
Average temperature yesterday: 49 °F

Past Weeks' High & Low Weather Summary

 TemperatureHumidityPressure
High61 °F (Mar 22, 1:30 PM)93% (Mar 18, 8:30 PM)30.66 "Hg (Mar 18, 8:30 PM)
Low25 °F (Mar 24, 5:30 AM)19% (Mar 23, 4:30 PM)29.47 "Hg (Apr 1, 2:00 AM)
Average43 °F65%30.02 "Hg
* Reported Mar 17 2:00 AM — Apr 1 3:00 AM, Chisinau, Weather by CustomWeather, © 2015

Note: Actual official high and low records may vary slightly from our data, if they occured in-between our weather recording intervals... More about our weather records

Advertising

Chisinau weather history for previous 24 hours

 ConditionsComfort  
Time TempWeatherWind HumidityBarometerVisibility
3:00 AM
Wed, Apr 1
43 °FClear.9 mph81%29.50 "Hg10 mi
2:30 AM43 °FClear.10 mph81%29.50 "Hg10 mi
2:00 AM43 °FClear.7 mph81%29.47 "Hg10 mi
1:30 AM45 °FClear.6 mph76%29.50 "Hg10 mi
1:00 AM45 °FClear.6 mph76%29.53 "Hg10 mi
12:30 AM45 °FClear.9 mph71%29.50 "Hg10 mi
12:00 AM46 °FPassing clouds.7 mph66%29.53 "HgN/A
11:30 PM
Tue, Mar 31
46 °FClear.8 mph66%29.53 "Hg10 mi
11:00 PM46 °FClear.9 mph71%29.56 "Hg10 mi
10:30 PM46 °FClear.9 mph71%29.56 "Hg10 mi
10:00 PM48 °FClear.13 mph66%29.56 "Hg10 mi
9:30 PM48 °FClear.14 mph66%29.56 "Hg10 mi
9:00 PM50 °FClear.15 mph58%29.56 "Hg10 mi
8:30 PM50 °FPassing clouds.14 mph54%29.59 "HgN/A
8:00 PM50 °FPassing clouds.10 mph54%29.59 "HgN/A
7:30 PM52 °FPassing clouds.9 mph50%29.59 "HgN/A
7:00 PM54 °FSunny.9 mph44%29.59 "Hg10 mi
6:30 PM54 °FSunny.8 mph41%29.59 "Hg10 mi
6:00 PM54 °FSunny.7 mph38%29.59 "Hg10 mi
5:30 PM55 °FPassing clouds.3 mph33%29.59 "HgN/A
5:00 PM55 °FPassing clouds.2 mph33%29.62 "HgN/A
4:30 PM55 °FScattered clouds.6 mph31%29.62 "HgN/A
4:00 PM55 °FScattered clouds.9 mph33%29.65 "HgN/A
3:30 PM54 °FPartly sunny.9 mph38%29.65 "HgN/A
3:00 PM54 °FPartly sunny.9 mph38%29.68 "HgN/A
2:30 PM52 °FPartly sunny.9 mph41%29.68 "HgN/A
2:00 PM52 °FPartly sunny.12 mph44%29.68 "HgN/A
1:30 PM54 °FPartly sunny.13 mph47%29.68 "HgN/A
1:00 PM52 °FPartly sunny.9 mph50%29.68 "HgN/A
12:30 PM52 °FPartly sunny.12 mph50%29.71 "HgN/A
12:00 PM50 °FScattered clouds.15 mph54%29.71 "HgN/A
11:30 AM46 °FScattered clouds.12 mph66%29.71 "HgN/A
11:00 AM46 °FPassing clouds.10 mph66%29.71 "HgN/A
10:30 AM46 °FPassing clouds.10 mph66%29.71 "HgN/A
10:00 AM45 °FPassing clouds.10 mph76%29.71 "HgN/A
9:30 AM45 °FScattered clouds.8 mph76%29.68 "HgN/A
9:00 AM43 °FPartly sunny.10 mph76%29.68 "HgN/A
8:30 AM43 °FSprinkles. More clouds than sun.12 mph81%29.68 "HgN/A
8:00 AM43 °FMore clouds than sun.17 mph81%29.65 "HgN/A
7:30 AM45 °FSprinkles. Mostly cloudy.16 mph81%29.65 "HgN/A
7:00 AM46 °FSprinkles. Fog.6 mph93%29.62 "Hg2 mi
6:30 AM46 °FSprinkles. Fog.6 mph93%29.59 "Hg2 mi
6:00 AM46 °FRain showers. Mostly cloudy.5 mph93%29.59 "Hg2 mi
5:30 AM46 °FRain showers. Mostly cloudy.6 mph93%29.59 "Hg2 mi
5:00 AM46 °FRain showers. Mostly cloudy.6 mph87%29.59 "Hg2 mi
4:30 AM46 °FSprinkles. Mostly cloudy.5 mph93%29.59 "Hg2 mi
4:00 AM46 °FSprinkles. Mostly cloudy.5 mph93%29.59 "Hg2 mi
3:30 AM46 °FSprinkles. Mostly cloudy.6 mph87%29.59 "Hg2 mi
3:00 AM46 °FSprinkles. Mostly cloudy.6 mph87%29.59 "Hg4 mi
Weather by CustomWeather, © 2015

See weather overviewHow to use our weather pages